[[{"header":{"parameterUnit":"m.s-1","parameterCategory":1,"la1":30.2991,"la2":30.254,"lo1":-89.0895,"lo2":-89.0444,"dy":0.0017,"dx":0.0017,"nx":28,"ny":28,"refTime":"2024-10-17T09:00:00:Z","depth":0,"parameterNumber":2,"parameterNumberName":"U-component_of_WINDS"},"data":[0,0,0,0,0,0,0,0,0,0,0,0,0,0,0,0,0,0,0,0,0,0,0,0,0,0,0,0,0,0,0,0,0,0,0,0,0,0,0,0,0,0,0,0,0,0,0,0,0,0,0,0,0,0,0,0,0,0,-4.9666,-4.9666,0,-4.9706,-4.9706,-4.9706,-4.9538,-4.9533,-4.9528,-4.9523,-4.9565,-4.957,-4.9576,0,0,0,0,0,0,0,0,0,0,0,0,0,-4.9443,-4.9448,-4.9666,-4.9666,-4.9667,-4.9706,-4.9706,-4.9707,-4.9539,-4.9533,-4.9527,-4.9521,-4.9563,-4.9569,-4.9576,0,0,0,0,0,0,0,0,0,0,0,0,0,-4.9517,-4.945,-4.9666,-4.9588,-4.9581,-4.9705,-4.9706,-4.9707,-4.954,-4.9533,-4.9525,-4.9518,-4.956,-4.9569,-4.9577,-4.9779,0,0,-4.9603,-4.9607,0,0,0,0,0,0,0,0,-4.9513,-4.9525,-4.9599,-4.9593,-4.9586,-4.9609,-4.9642,-4.9731,-4.9542,-4.9556,-4.9523,-4.9515,-4.9585,-4.9591,-4.9615,-4.9781,-4.9782,-4.9604,-4.9609,-4.9613,-4.9615,0,0,0,0,0,0,0,-4.9508,-4.9523,-4.9681,-4.96,-4.9592,-4.955,-4.9553,-4.9658,-4.9612,-4.9554,-4.9542,-4.9549,-4.9581,-4.9607,-4.9615,-4.9783,-4.9604,-4.9612,-4.9617,-4.962,-5.0112,-5.012,0,0,0,0,0,0,-4.9513,-4.952,-4.968,-4.9683,-4.9531,-4.956,-4.9563,-4.9609,-4.961,-4.9603,-4.9555,-4.9541,-4.9596,-4.9605,-4.9616,-4.9848,-4.9613,-4.9621,-4.9626,-5.0104,-5.0114,-5.0123,0,0,0,0,0,0,-4.9509,-4.9529,-4.9678,-4.9598,-4.9614,-4.9572,-4.9625,-4.9614,-4.964,-4.9611,-4.9602,-4.9591,-4.9591,-4.9604,-4.9739,-4.9848,-4.9625,-4.9633,-5.0095,-5.0107,-5.0118,-5.0318,0,0,0,0,0,0,-4.9504,-4.9529,-4.9605,-4.9601,-4.9619,-4.9802,-4.9632,-4.962,-4.9656,-4.9637,-4.9642,-4.9636,-4.9586,-4.9727,-4.9747,-4.9855,-4.9639,-5.0085,-5.0101,-5.0115,-5.0302,-5.0335,-5.0364,0,0,0,0,0,-4.9496,-4.9661,-4.961,-4.963,-4.9713,-4.9808,-4.9818,-4.9757,-4.9665,-4.9741,-4.9722,-4.9636,-4.9834,-4.9742,-4.9764,-4.9876,-5.0078,-5.0096,-5.0113,-5.0287,-5.0329,-5.0364,0,0,0,0,0,0,-4.968,-4.9659,-4.9602,-4.9771,-4.9793,-4.978,-4.9873,-4.9804,-4.9852,-4.9833,-4.9756,-4.9758,-4.9906,-4.9905,-4.9804,-5.007,-4.9939,-4.9963,-5.0064,-5.0103,-5.0134,-5.013,-4.9646,0,0,0,0,0,-4.974,-4.9819,-4.9796,-4.9947,-4.9961,-4.9916,-4.9955,-4.9906,-4.9926,-4.9934,-4.9925,-4.9947,-5.0013,-5.0059,-5.0119,-5.0302,-5.0299,-5.039,-5.0421,-5.0447,-5.0467,-5.056,-5.0599,-5.0181,-5.0181,-5.0181,0,0,-4.9864,-4.9863,-4.9918,-4.9984,-4.9995,-5.0077,-4.9925,-5.0019,-5.0079,-4.9948,-5.0074,-5.0069,-5.0088,-5.0247,-5.0317,-5.0251,-5.0582,-5.047,-5.0491,-5.0496,-5.0583,-5.0622,-5.0657,-5.0193,-5.0191,-5.0189,0,0,-5.0133,-5.0141,-5.0265,-5.028,-5.0298,-5.0267,-5.0298,-5.0295,-5.0286,-5.0411,-5.0314,-5.0385,-5.0502,-5.0519,-5.0543,-5.0817,-5.0739,-5.084,-5.1002,-5.1094,-5.1127,-5.1156,-5.125,-5.1286,-5.086,-5.0861,-5.0861,0,-5.0285,-5.0405,-5.0338,-5.0439,-5.0469,-5.0355,-5.0479,-5.0497,-5.0535,-5.0558,-5.0484,-5.0627,-5.0633,-5.0792,-5.0859,-5.0884,-5.0914,-5.0837,-5.1128,-5.1156,-5.1182,-5.1271,-5.1307,-5.0872,-5.0871,-5.087,-5.0869,0,-5.059,-5.0675,-5.0774,-5.0812,-5.0854,-5.0967,-5.0915,-5.0967,-5.0915,-5.0891,-5.1019,-5.1022,-5.1079,-5.1114,-5.1065,-5.1266,-5.1224,-5.1141,-5.1008,-5.1235,-5.1317,-5.1351,-5.0889,-5.0885,-5.0881,-5.0879,0,0,-5.0973,-5.0972,-5.1009,-5.1024,-5.1036,-5.11,-5.1207,-5.1262,-5.1306,-5.1337,-5.1422,-5.1524,-5.1446,-5.1474,-5.1425,-5.1507,-5.172,-5.1412,-5.1411,-5.1466,-5.1939,-5.1999,-5.204,-5.1669,-5.1676,-5.1681,-5.1936,0,-5.1233,-5.1414,-5.1356,-5.1539,-5.1615,-5.1508,-5.1601,-5.1618,-5.1599,-5.1661,-5.164,-5.1712,-5.1606,-5.1621,-5.1697,-5.1678,-5.1813,-5.1659,-5.1746,-5.175,-5.1741,-5.2083,-5.2147,-5.2388,-5.1968,-5.1973,-5.1977,0,-5.156,-5.1602,-5.1792,-5.1789,-5.1819,-5.1903,-5.1948,-5.2009,-5.2026,-5.2006,-5.2038,-5.1972,-5.2075,-5.1945,-5.2085,-5.1981,-5.2014,-5.201,-5.2018,-5.202,-5.1875,-5.2092,-5.2463,-5.2498,-5.2028,-5.2024,-5.202,0,-5.1815,-5.192,-5.2046,-5.2063,-5.2064,-5.2125,-5.2128,-5.2137,-5.2174,-5.2214,-5.2236,-5.2288,-5.2316,-5.2358,-5.2307,-5.2218,-5.2454,-5.232,-5.2439,-5.244,-5.249,-5.2487,-5.2869,-5.2519,-5.2518,-5.2517,-5.2517,0,-5.2109,-5.2229,-5.216,-5.2238,-5.2368,-5.2301,-5.2432,-5.2423,-5.2433,-5.2506,-5.2418,-5.2488,-5.2419,-5.2484,-5.2446,-5.2565,-5.258,-5.2566,-5.2553,-5.2571,-5.2573,-5.2589,-5.2569,-5.2527,-5.2525,-5.2523,-5.2521,0,-5.2415,-5.2374,-5.2504,-5.2494,-5.2495,-5.2591,-5.2582,-5.2652,-5.2628,-5.2721,-5.274,-5.2701,-5.2772,-5.2727,-5.2799,-5.2773,-5.2928,-5.2895,-5.2922,-5.2912,-5.3031,-5.3019,-5.3433,-5.3483,-5.3105,-5.3109,-5.3112,0,-5.2603,-5.2692,-5.2692,-5.2734,-5.2743,-5.2813,-5.2849,-5.2787,-5.2828,-5.2854,-5.2921,-5.2984,-5.3031,-5.3149,-5.3127,-5.3181,-5.3146,-5.3287,-5.3153,-5.3168,-5.3143,-5.3137,-5.3144,-5.3313,-5.3318,-5.3321,-5.3324,0,-5.294,-5.2915,-5.297,-5.3019,-5.3065,-5.31,-5.3128,-5.3168,-5.3106,-5.3157,-5.3227,-5.3264,-5.3337,-5.34,-5.3445,-5.3447,-5.3375,-5.3367,-5.3397,-5.3414,-5.3424,-5.3416,-5.2992,-5.3357,-5.3354,-5.3351,-5.335,-5.3348,-5.3189,-5.3262,-5.3273,-5.3337,-5.3352,-5.338,-5.3445,-5.3428,-5.3486,-5.354,-5.35,-5.3584,-5.3597,-5.365,-5.3662,-5.3726,-5.3668,-5.3712,-5.3722,-5.3733,-5.3748,-5.3418,-5.3735,-5.3734,-5.3733,-5.3732,-5.3731,0,-5.3518,-5.3519,-5.3579,-5.3621,-5.3671,-5.36,-5.3627,-5.3674,-5.3748,-5.3767,-5.3814,-5.3895,-5.3956,-5.3939,-5.3993,-5.4047,-5.4015,-5.4063,-5.4056,-5.4057,-5.3798,-5.3765,-5.4087,-5.4087,-5.4087,-5.4087,-5.4087,-5.4087,-5.3694,-5.3813,-5.379,-5.3915,-5.3915,-5.3995,-5.4017,-5.4042,-5.4056,-5.4149,-5.4199,-5.4188,-5.4192,-5.4245,-5.4297,-5.4291,-5.4313,-5.4372,-5.4353,-5.4111,-5.4076,-5.4042,-5.401,-5.4379,-5.4379,-5.4606,-5.4608,-5.461]},{"header":{"parameterUnit":"m.s-1","parameterCategory":1,"la1":30.2991,"la2":30.254,"lo1":-89.0895,"lo2":-89.0444,"dy":0.0017,"dx":0.0017,"nx":28,"ny":28,"refTime":"2024-10-17T09:00:00:Z","depth":0,"parameterNumber":3,"parameterNumberName":"V-component_of_WINDS"},"data":[0,0,0,0,0,0,0,0,0,0,0,0,0,0,0,0,0,0,0,0,0,0,0,0,0,0,0,0,0,0,0,0,0,0,0,0,0,0,0,0,0,0,0,0,0,0,0,0,0,0,0,0,0,0,0,0,0,0,-2.0467,-2.0467,0,-2.0486,-2.0486,-2.0486,-2.0487,-2.0487,-2.0487,-2.0487,-2.0504,-2.0505,-2.0506,0,0,0,0,0,0,0,0,0,0,0,0,0,-2.0428,-2.0429,-2.0467,-2.0467,-2.0467,-2.0486,-2.0486,-2.0486,-2.0487,-2.0487,-2.0487,-2.0487,-2.0504,-2.0505,-2.0506,0,0,0,0,0,0,0,0,0,0,0,0,0,-2.0446,-2.0429,-2.0467,-2.047,-2.0471,-2.0486,-2.0486,-2.0486,-2.0487,-2.0487,-2.0487,-2.0486,-2.0504,-2.0505,-2.0506,-2.0518,0,0,-2.0509,-2.0509,0,0,0,0,0,0,0,0,-2.0445,-2.0447,-2.0469,-2.047,-2.047,-2.0484,-2.0479,-2.0497,-2.0487,-2.0481,-2.0487,-2.0486,-2.0498,-2.0499,-2.0503,-2.0519,-2.052,-2.0509,-2.051,-2.051,-2.051,0,0,0,0,0,0,0,-2.0443,-2.0446,-2.0474,-2.047,-2.047,-2.0469,-2.0472,-2.0482,-2.0491,-2.0481,-2.0482,-2.0484,-2.0498,-2.0502,-2.0504,-2.052,-2.0509,-2.051,-2.051,-2.0511,-2.0544,-2.0545,0,0,0,0,0,0,-2.0442,-2.0445,-2.0474,-2.0475,-2.0457,-2.047,-2.0473,-2.048,-2.0491,-2.0492,-2.0484,-2.0484,-2.0501,-2.0503,-2.0504,-2.0518,-2.051,-2.0511,-2.0511,-2.0544,-2.0544,-2.0545,0,0,0,0,0,0,-2.0441,-2.0444,-2.0473,-2.046,-2.0464,-2.0471,-2.0479,-2.048,-2.0485,-2.0493,-2.0494,-2.0487,-2.0501,-2.0503,-2.0514,-2.0519,-2.0511,-2.0512,-2.0544,-2.0544,-2.0545,-2.0547,0,0,0,0,0,0,-2.044,-2.0444,-2.045,-2.046,-2.0464,-2.0484,-2.048,-2.0481,-2.0487,-2.0487,-2.0496,-2.0497,-2.0501,-2.0513,-2.0515,-2.052,-2.0513,-2.0543,-2.0544,-2.0544,-2.0546,-2.0547,-2.0548,0,0,0,0,0,-2.0439,-2.045,-2.045,-2.0454,-2.0472,-2.0484,-2.0486,-2.049,-2.0487,-2.0492,-2.0497,-2.0497,-2.0518,-2.0514,-2.0517,-2.0522,-2.0543,-2.0544,-2.0544,-2.0546,-2.0547,-2.0548,0,0,0,0,0,0,-2.044,-2.0451,-2.0452,-2.0467,-2.0474,-2.0484,-2.0491,-2.0491,-2.0499,-2.0499,-2.0503,-2.0505,-2.0516,-2.052,-2.0515,-2.0533,-2.053,-2.0531,-2.053,-2.0531,-2.0532,-2.0531,-2.0514,0,0,0,0,0,-2.0442,-2.0452,-2.0461,-2.0473,-2.0477,-2.0483,-2.0489,-2.0491,-2.0498,-2.0502,-2.0507,-2.0514,-2.0522,-2.0527,-2.0535,-2.0547,-2.0548,-2.0552,-2.0552,-2.0553,-2.0554,-2.0559,-2.056,-2.0547,-2.0547,-2.0547,0,0,-2.0447,-2.0454,-2.046,-2.0474,-2.048,-2.0488,-2.0486,-2.0496,-2.0502,-2.0503,-2.0514,-2.0518,-2.0525,-2.0537,-2.0542,-2.0541,-2.0558,-2.0554,-2.0554,-2.0555,-2.056,-2.0561,-2.0562,-2.0547,-2.0547,-2.0547,0,0,-2.0459,-2.0466,-2.0476,-2.0482,-2.0491,-2.0495,-2.0497,-2.0506,-2.0509,-2.052,-2.052,-2.0527,-2.0541,-2.0546,-2.055,-2.0562,-2.0562,-2.0564,-2.0569,-2.0573,-2.0574,-2.0575,-2.0578,-2.0579,-2.0565,-2.0565,-2.0565,0,-2.0463,-2.0477,-2.0482,-2.0491,-2.0496,-2.0497,-2.0507,-2.0512,-2.0523,-2.0526,-2.0524,-2.054,-2.0545,-2.0557,-2.056,-2.0564,-2.0565,-2.0563,-2.0574,-2.0575,-2.0576,-2.0579,-2.058,-2.0565,-2.0565,-2.0565,-2.0565,0,-2.0481,-2.0491,-2.0498,-2.0508,-2.0514,-2.0523,-2.0527,-2.0533,-2.0534,-2.0537,-2.0547,-2.0553,-2.0562,-2.0565,-2.0566,-2.0576,-2.0575,-2.0573,-2.057,-2.0577,-2.058,-2.0581,-2.0566,-2.0566,-2.0565,-2.0565,0,0,-2.0496,-2.0507,-2.051,-2.0513,-2.0522,-2.0529,-2.0538,-2.0546,-2.0549,-2.0556,-2.0563,-2.0573,-2.0572,-2.0577,-2.0578,-2.0583,-2.059,-2.0581,-2.0581,-2.0581,-2.0599,-2.06,-2.0601,-2.059,-2.059,-2.059,-2.0598,0,-2.0509,-2.0524,-2.0527,-2.054,-2.0548,-2.0548,-2.0555,-2.0561,-2.0564,-2.057,-2.0573,-2.058,-2.0578,-2.0581,-2.0585,-2.0588,-2.0593,-2.0587,-2.0594,-2.0594,-2.0592,-2.0602,-2.0603,-2.0611,-2.0599,-2.06,-2.06,0,-2.0526,-2.0532,-2.0546,-2.0552,-2.0556,-2.0562,-2.0569,-2.0575,-2.058,-2.0582,-2.0587,-2.0587,-2.0595,-2.0591,-2.06,-2.0596,-2.0599,-2.0601,-2.0601,-2.0601,-2.0597,-2.0602,-2.0614,-2.0614,-2.0602,-2.0601,-2.0601,0,-2.0533,-2.0546,-2.0556,-2.0559,-2.0567,-2.0571,-2.0574,-2.0579,-2.0583,-2.0589,-2.0591,-2.0597,-2.0601,-2.0605,-2.0607,-2.0604,-2.0615,-2.0612,-2.0616,-2.0616,-2.0618,-2.0618,-2.0629,-2.0621,-2.0621,-2.0621,-2.0621,0,-2.0547,-2.0555,-2.0559,-2.0565,-2.0573,-2.0576,-2.0584,-2.0587,-2.0591,-2.0596,-2.0597,-2.0602,-2.0604,-2.0609,-2.0611,-2.0617,-2.0619,-2.062,-2.062,-2.0619,-2.0619,-2.0621,-2.062,-2.0621,-2.0621,-2.0621,-2.0621,0,-2.0557,-2.056,-2.057,-2.0576,-2.0578,-2.0583,-2.0588,-2.0593,-2.0595,-2.0602,-2.0604,-2.0607,-2.0613,-2.0615,-2.0622,-2.0623,-2.063,-2.063,-2.0628,-2.0628,-2.0632,-2.0631,-2.0644,-2.0645,-2.0637,-2.0637,-2.0637,0,-2.0565,-2.0571,-2.0577,-2.0581,-2.0584,-2.059,-2.0594,-2.0596,-2.06,-2.0606,-2.0609,-2.0615,-2.062,-2.0628,-2.0631,-2.0636,-2.0636,-2.064,-2.0637,-2.0635,-2.0635,-2.0634,-2.0634,-2.064,-2.0641,-2.0641,-2.0641,0,-2.0578,-2.0579,-2.0585,-2.059,-2.0595,-2.06,-2.0604,-2.0607,-2.061,-2.0614,-2.0619,-2.0623,-2.0629,-2.0635,-2.0639,-2.0642,-2.0641,-2.0642,-2.0643,-2.0642,-2.064,-2.064,-2.0629,-2.0641,-2.0641,-2.0641,-2.0641,-2.0641,-2.0587,-2.0591,-2.0596,-2.0602,-2.0605,-2.0609,-2.0613,-2.0616,-2.0621,-2.0627,-2.0627,-2.0633,-2.0637,-2.0643,-2.0645,-2.0649,-2.0648,-2.065,-2.065,-2.065,-2.065,-2.064,-2.065,-2.065,-2.065,-2.065,-2.065,0,-2.0599,-2.0601,-2.0607,-2.0613,-2.0617,-2.0616,-2.0621,-2.0624,-2.0629,-2.0633,-2.0637,-2.0643,-2.0647,-2.065,-2.0654,-2.0657,-2.0656,-2.0658,-2.0657,-2.0657,-2.0651,-2.065,-2.0658,-2.0658,-2.0658,-2.0658,-2.0658,-2.0658,-2.0605,-2.0613,-2.0614,-2.0623,-2.0625,-2.0631,-2.0633,-2.0636,-2.0639,-2.0645,-2.0649,-2.0651,-2.0653,-2.0658,-2.0661,-2.0662,-2.0663,-2.0664,-2.0665,-2.0659,-2.0658,-2.0657,-2.0656,-2.0665,-2.0665,-2.067,-2.067,-2.067]}]]